Regional Weather Roundup
Issued by NWS

Home | Current Version | Previous Version | Text Only | Print | Product List | Glossary On
Versions: 1 2 3 4 5 6 7 8 9 10 11 12 13 14 15 16 17 18 19 20 21 22 23 24 25 26 27 28 29 30 31 32 33 34 35 36 37 38 39 40 41 42 43 44 45 46 47 48 49 50
000
ASUS43 KLOT 280621
RWRIL

ILLINOIS REGIONAL WEATHER ROUNDUP
NATIONAL WEATHER SERVICE CHICAGO/ROMEOVILLE IL
100 AM CDT TUE APR 28 2015

NOTE: "FAIR" INDICATES FEW OR NO CLOUDS BELOW 12,000 FEET WITH NO
SIGNIFICANT WEATHER AND/OR OBSTRUCTIONS TO VISIBILITY.

* THESE STATIONS ARE NOT UNDER NWS QUALITY CONTROL. THEY ALSO MAY NOT
  REPORT WEATHER SUCH AS PRECIPITATION OR FOG.

ILZ001-002-007-009-015-016-024-280700-
NORTHWEST ILLINOIS

CITY           SKY/WX    TMP DP  RH WIND       PRES   REMARKS
MOLINE         CLEAR     43  37  79 CALM      30.12R
6HR MIN TEMP:  41; 6HR MAX TEMP:  63;

STERLING*      CLEAR     43  36  75 CALM      30.14R
SAVANNA*       CLEAR     46  37  73 CALM      30.13R
$$

ILZ003-004-008-010-011-017-018-280700-
NORTH CENTRAL ILLINOIS

CITY           SKY/WX    TMP DP  RH WIND       PRES   REMARKS
ROCKFORD       CLEAR     43  34  70 CALM      30.16R
6HR MIN TEMP:  42; 6HR MAX TEMP:  62;

FREEPORT*      CLEAR     37  33  86 E6        30.15R WCI  32
ROCHELLE*      FAIR      38  35  87 CALM      30.14S
DE KALB*       CLEAR     37  32  81 CALM      30.14R
PERU*          CLEAR     43  36  75 CALM      30.14R
$$

ILZ005-006-012>014-019>023-280700-
NORTHEAST ILLINOIS

CITY           SKY/WX    TMP DP  RH WIND       PRES   REMARKS
CHICAGO-OHARE  CLEAR     38  32  79 CALM      30.11S
6HR MIN TEMP:  38; 6HR MAX TEMP:  50;

CHICAGO-MIDWAY CLEAR     43  33  68 CALM      30.12R
6HR MIN TEMP:  43; 6HR MAX TEMP:  51;

AURORA         CLEAR     38  31  76 CALM      30.13R
6HR MIN TEMP:  36; 6HR MAX TEMP:  54;

LANSING*       CLEAR     37  33  82 CALM      30.12R
JOLIET*        CLEAR     40  35  79 CALM      30.13S
WAUKEGAN       CLEAR     39  32  76 N5        30.12R
6HR MIN TEMP:  36; 6HR MAX TEMP:  46;

DUPAGE AIRPORT CLEAR     40  32  73 CALM      30.12R
6HR MIN TEMP:  36; 6HR MAX TEMP:  50;

KANKAKEE*      CLEAR     38  35  87 CALM      30.12R
WHEELING       CLEAR     39  33  79 CALM      30.14R
6HR MIN TEMP:  37; 6HR MAX TEMP:  48;

MORRIS*        CLEAR     39  34  83 CALM      30.09F
ROMEOVILLE*    CLEAR     40  32  72 CALM      30.12S
NORTHERLY ISL    N/A     42  35  76 N7          N/A
$$

LMZ740>746-280700-
SOUTHERN LAKE MICHIGAN

STATION/POSITION SKY/WX   TEMP    WIND        PRES    VSBY  WAVE
                          AIR SEA DIR/SP/G                  HT/PER
                          (F)     (DEG/KT/KT) (MB)    (MI)  (FT/S)
HARRISON CRIB              42     330/  7/  7   N/A
BURNHAM HARBOR             42     360/  4/  7   N/A
CALUMET HARBOR             41     350/  3/  5   N/A
BURNS HARBOR               42      50/  3/  4 1020.0F
MICHIGAN CITY              41      10/  2/  3   N/A
MICHIGAN CITY 6N           40 46  360/  4/  6   N/A           2/ 5
$$

ILZ025>027-034>036-040-047-049-050-058-095>099-280700-
WEST-CENTRAL ILLINOIS

CITY           SKY/WX    TMP DP  RH WIND       PRES   REMARKS
QUINCY         CLEAR     50  35  56 NE3       30.11S
GALESBURG*     CLEAR     46  37  69 CALM      30.13R
MACOMB*        CLEAR     47  38  72 SE8       30.14S
JACKSONVILLE*  CLEAR     51  38  61 SE7       30.12S
PITTSFIELD*    CLEAR     45  39  79 CALM      30.13R
$$

ILZ028>032-037-038-041>044-048-051>054-059>061-280700-
CENTRAL ILLINOIS

CITY           SKY/WX    TMP DP  RH WIND       PRES   REMARKS
PONTIAC        CLEAR     38  34  85 CALM      30.13S
BLOOMINGTON    CLEAR     43  34  70 E5        30.13S
DECATUR        CLEAR     40  34  79 N9        30.10F
PEORIA         CLEAR     47  35  63 CALM      30.13S
6HR MIN TEMP:  47; 6HR MAX TEMP:  64;

LACON*         CLEAR     39  35  85 CALM      30.13S
LINCOLN*       CLEAR     44  36  75 CALM      30.12S
SPRINGFIELD    CLEAR     45  36  70 CALM      30.12F
6HR MIN TEMP:  44; 6HR MAX TEMP:  62;

TAYLORVILLE    CLEAR     45  36  70 CALM      30.11S
$$

ILZ033-039-045-046-055>057-062-063-280700-
EAST-CENTRAL ILLINOIS

CITY           SKY/WX    TMP DP  RH WIND       PRES   REMARKS
CHAMPAIGN      CLEAR     42  33  70 NE7       30.10R
DANVILLE*      CLEAR     39  34  82 CALM      30.07S
RANTOUL*       CLEAR     42  35  75 N5        30.11R
MATTOON        CLEAR     41  34  76 NE8       30.09R
PARIS*         CLEAR     42  36  79 CALM      30.10S
$$

ILZ079-100>102-280700-
SOUTHWEST ILLINOIS

CITY           SKY/WX    TMP DP  RH WIND       PRES   REMARKS
ALTON          CLEAR     47  38  68 CALM      30.11S
BELLEVILLE     CLEAR     46  42  84 N3        30.09R
CAHOKIA*       CLEAR     46  39  76 CALM      30.10R
SPARTA*        CLEAR     46  38  76 NE3       30.10R
$$

ILZ064>066-069>071-074>076-080>082-084>086-088>090-092>094-280700-
SOUTH-CENTRAL ILLINOIS

CITY           SKY/WX    TMP DP  RH WIND       PRES   REMARKS
CARBONDALE     CLEAR     49  38  65 N6        30.08S
6HR MIN TEMP:  48; 6HR MAX TEMP:  61;

CAIRO*         PTCLDY    52  41  66 NE9       30.06R
EFFINGHAM*     FAIR      41  35  77 CALM      30.10S
MARION         CLEAR     46  39  76 N8        30.08S
MT. VERNON     CLEAR     37  32  81 CALM      30.09S
CENTRALIA*     CLEAR     43  36  76 CALM      30.09F
SALEM*         CLEAR     43  37  80 CALM      30.09F
METROPOLIS*    CLEAR     50  41  71 NE3       30.05R
$$

ILZ067-068-072-073-078-083-087-091-280700-
SOUTHEAST ILLINOIS

CITY           SKY/WX    TMP DP  RH WIND       PRES   REMARKS
LAWRENCEVILLE  CLEAR     45  37  73 NE5       30.08S
FLORA*         CLEAR     45  37  72 CALM      30.09S
FAIRFIELD*     CLEAR     46  38  75 N3        30.07F
HARRISBURG*    CLEAR     48  39  69 N6        30.08S
ROBINSON*      CLEAR     45  36  71 NE7       30.09S
CARMI*         CLEAR     46  36  69 N6        30.07S
$$

ABBREVIATIONS USED IN REMARKS
   TC - TEMPERATURE IN CELSIUS
  WCI - WIND CHILL INDEX
   HX - HEAT INDEX
  VSB - VISIBILITY
$$



USA.gov is the U.S. government's official web portal to all federal, state and local government web resources and services.